Wrangell, AK

2:46 AM AKDT on May 28, 2017 (GMT -0800)
Wrangell

Weather History for PAWG - March, 2013

Change the Weather History Date:

Monday, March 18, 2013

  Actual Average Record
Temperature  
Mean Temperature 32 °F -  
Max Temperature 35 °F 43 °F 53 °F (1990)
Min Temperature 28 °F 31 °F 12 °F (2006)
Degree Days  
Heating Degree Days 34    
Moisture  
Dew Point 27 °F    
Average Humidity 82    
Maximum Humidity 93    
Minimum Humidity 75    
Precipitation  
Precipitation 0.20 in - - ()
Sea Level Pressure  
Sea Level Pressure 30.00 in    
Wind  
Wind Speed 3 mph (SE)    
Max Wind Speed 10 mph    
Max Gust Speed -    
Visibility 6 miles    
Events Snow    
Averages and records for this station are not official NWS values.
T = Trace of Precipitation, MM = Missing Value Source: NWS Daily Summary

Daily Weather History Graph

Daily Weather History Graph

Search for Another Location

Airport or City:

Trip Planner

Search our weather history database for the weather conditions in past years. The results will help you decide how hot, cold, wet, or windy it might be!

Date:

Astronomy

Mar. 18, 2013 Rise Set
Actual Time 6:55 AM AKDT 7:00 PM AKDT
Civil Twilight 6:18 AM AKDT 7:37 PM AKDT
Nautical Twilight 5:33 AM AKDT 8:22 PM AKDT
Astronomical Twilight 4:46 AM AKDT 9:09 PM AKDT
Moon 9:55 AM AKDT (3/18) 2:09 AM AKDT (3/18)
Length of Visible Light 13h 19m
Length of Day
12h 04m
Waxing Crescent, 42% of the Moon is Illuminated
Mar 18
Waxing Crescent
Mar 19
First Quarter
Mar 27
Full
Apr 2
Last Quarter
Apr 10
New

Hourly Weather History & Observations

Time (AKDT) Temp. Windchill Dew Point Humidity Pressure Visibility Wind Dir Wind Speed Gust Speed Precip Events Conditions
12:16 AM 30.2 °F - 26.6 °F 86% 30.02 in 10.0 mi Calm Calm - N/A   Overcast
12:36 AM 30.2 °F 25.4 °F 24.8 °F 80% 30.02 in 10.0 mi NNW 4.6 mph - N/A   Overcast
12:56 AM 30.2 °F 25.4 °F 26.6 °F 86% 30.01 in 10.0 mi NNW 4.6 mph - N/A   Overcast
1:16 AM 30.2 °F 24.3 °F 26.6 °F 86% 30.01 in 8.0 mi NNW 5.8 mph - N/A   Overcast
1:36 AM 30.2 °F 23.4 °F 24.8 °F 80% 30.01 in 10.0 mi WNW 6.9 mph - N/A   Overcast
1:56 AM 30.2 °F 25.4 °F 26.6 °F 86% 30.01 in 8.0 mi West 4.6 mph - N/A   Overcast
2:16 AM 30.2 °F - 26.6 °F 86% 30.00 in 3.0 mi Calm Calm - N/A   Overcast
2:36 AM 30.2 °F - 26.6 °F 86% 30.00 in 9.0 mi Calm Calm - N/A   Mostly Cloudy
2:56 AM 30.2 °F - 26.6 °F 86% 29.99 in 2.5 mi Calm Calm - N/A   Overcast
3:16 AM 30.2 °F - 26.6 °F 86% 29.99 in 2.0 mi Calm Calm - N/A   Overcast
3:36 AM 32.0 °F 27.5 °F 26.6 °F 80% 29.98 in 5.0 mi ESE 4.6 mph - 0.01 in   Overcast
3:56 AM 32.0 °F - 26.6 °F 80% 29.98 in 1.8 mi Calm Calm - 0.01 in   Overcast
4:16 AM 32.0 °F 27.5 °F 26.6 °F 80% 29.98 in 2.0 mi ESE 4.6 mph - 0.01 in   Overcast
4:36 AM 32.0 °F - 28.4 °F 87% 29.97 in 2.5 mi Calm Calm - 0.01 in   Overcast
4:56 AM 32.0 °F - 26.6 °F 80% 29.98 in 3.0 mi Calm Calm - 0.02 in   Overcast
5:16 AM 32.0 °F 28.7 °F 28.4 °F 87% 29.97 in 10.0 mi SE 3.5 mph - N/A   Overcast
5:36 AM 33.8 °F 30.8 °F 28.4 °F 81% 29.97 in 5.0 mi ESE 3.5 mph - 0.01 in   Overcast
5:56 AM 32.0 °F 28.7 °F 26.6 °F 80% 29.97 in 2.0 mi ESE 3.5 mph - 0.01 in   Overcast
6:16 AM 32.0 °F - 26.6 °F 80% 29.96 in 2.0 mi Calm Calm - N/A   Overcast
6:36 AM 32.0 °F - 28.4 °F 87% 29.96 in 2.0 mi Calm Calm - 0.01 in   Overcast
6:56 AM 32.0 °F - 26.6 °F 80% 29.96 in 2.0 mi Calm Calm - 0.01 in   Overcast
7:16 AM 33.8 °F - 28.4 °F 81% 29.96 in 2.0 mi Calm Calm - 0.01 in   Overcast
7:36 AM 32.0 °F 25.6 °F 28.4 °F 87% 29.96 in 2.0 mi NW 6.9 mph - 0.01 in   Overcast
7:56 AM 30.2 °F 21.3 °F 26.6 °F 86% 29.96 in 2.0 mi NW 10.4 mph - 0.01 in   Overcast
8:16 AM 30.2 °F 21.3 °F 24.8 °F 80% 29.97 in 2.0 mi NNW 10.4 mph - N/A   Overcast
8:36 AM 28.4 °F 19.7 °F 26.6 °F 93% 29.98 in 0.5 mi NNW 9.2 mph - N/A   Overcast
8:56 AM 30.2 °F 21.9 °F 26.6 °F 86% 29.98 in 0.5 mi NNW 9.2 mph - N/A   Overcast
9:05 AM 30.2 °F 22.6 °F 24.8 °F 80% 29.99 in 7.0 mi West 8.1 mph - N/A Snow Light Snow
9:16 AM 30.2 °F 22.6 °F 24.8 °F 80% 29.99 in 7.0 mi NW 8.1 mph - N/A   Overcast
9:36 AM 30.2 °F 22.6 °F 24.8 °F 80% 30.00 in 7.0 mi WNW 8.1 mph - N/A   Overcast
9:56 AM 30.2 °F 21.9 °F 24.8 °F 80% 30.00 in 10.0 mi NW 9.2 mph - N/A   Mostly Cloudy
10:16 AM 30.2 °F 23.4 °F 24.8 °F 80% 30.01 in 10.0 mi NW 6.9 mph - N/A   Mostly Cloudy
10:36 AM 30.2 °F 23.4 °F 24.8 °F 80% 30.02 in 10.0 mi NW 6.9 mph - N/A   Mostly Cloudy
10:56 AM 30.2 °F 22.6 °F 24.8 °F 80% 30.02 in 10.0 mi NNW 8.1 mph - 0.01 in   Mostly Cloudy
11:16 AM 30.2 °F 24.3 °F 24.8 °F 80% 30.03 in 10.0 mi NW 5.8 mph - 0.01 in   Mostly Cloudy
11:36 AM 30.2 °F 26.7 °F 24.8 °F 80% 30.03 in 10.0 mi WNW 3.5 mph - 0.02 in   Mostly Cloudy
11:56 AM 30.2 °F 25.4 °F 24.8 °F 80% 30.03 in 10.0 mi NW 4.6 mph - 0.03 in   Overcast
12:16 PM 30.2 °F - 26.6 °F 86% 30.04 in 10.0 mi Calm Calm - 0.02 in   Overcast
12:36 PM 32.0 °F - 26.6 °F 80% 30.04 in 10.0 mi Calm Calm - 0.02 in   Overcast
12:56 PM 33.8 °F - 26.6 °F 75% 30.04 in 10.0 mi Calm Calm - 0.02 in   Mostly Cloudy
1:16 PM 33.8 °F - 26.6 °F 75% 30.04 in 10.0 mi Calm Calm - N/A   Mostly Cloudy
1:36 PM 33.8 °F - 28.4 °F 81% 30.04 in 10.0 mi Calm Calm - N/A   Mostly Cloudy
1:56 PM 33.8 °F - 28.4 °F 81% 30.04 in 10.0 mi Calm Calm - N/A   Mostly Cloudy
2:16 PM 33.8 °F - 28.4 °F 81% 30.04 in 10.0 mi Calm Calm - N/A   Mostly Cloudy
2:36 PM 33.8 °F - 28.4 °F 81% 30.04 in 10.0 mi Calm Calm - N/A   Mostly Cloudy
2:56 PM 33.8 °F 30.8 °F 28.4 °F 81% 30.04 in 10.0 mi South 3.5 mph - N/A   Mostly Cloudy
3:04 PM 33.8 °F 30.8 °F 28.4 °F 81% 30.04 in 0.5 mi ESE 3.5 mph - N/A Snow Snow
3:16 PM 33.8 °F - 28.4 °F 81% 30.04 in 0.5 mi Calm Calm - N/A   Overcast
3:23 PM 33.8 °F - 30.2 °F 87% 30.04 in 3.0 mi Calm Calm - N/A   Mostly Cloudy
3:36 PM 35.6 °F 32.8 °F 30.2 °F 81% 30.03 in 7.0 mi ENE 3.5 mph - N/A   Mostly Cloudy
3:56 PM 35.6 °F 30.7 °F 30.2 °F 81% 30.02 in 10.0 mi East 5.8 mph - N/A   Mostly Cloudy
4:16 PM 35.6 °F 30.7 °F 28.4 °F 75% 30.02 in 10.0 mi ESE 5.8 mph - N/A   Mostly Cloudy
4:35 PM 33.8 °F - 28.4 °F 81% 30.03 in 1.0 mi Calm Calm - N/A Snow Light Snow
4:36 PM 33.8 °F 30.8 °F 28.4 °F 81% 30.03 in 3.0 mi South 3.5 mph - N/A   Mostly Cloudy
4:56 PM 33.8 °F - 28.4 °F 81% 30.02 in 0.2 mi Calm Calm - 0.01 in   Overcast
5:16 PM 32.0 °F 28.7 °F 28.4 °F 87% 30.02 in 0.5 mi SW 3.5 mph - N/A   Overcast
5:36 PM 33.8 °F 30.8 °F 28.4 °F 81% 30.02 in 3.0 mi SW 3.5 mph - 0.02 in   Overcast
5:56 PM 33.8 °F 27.7 °F 28.4 °F 81% 30.02 in 1.0 mi South 6.9 mph - 0.03 in   Overcast
6:16 PM 33.8 °F - 28.4 °F 81% 30.01 in 1.0 mi Calm Calm - 0.01 in   Overcast
6:20 PM 33.8 °F 30.8 °F 26.6 °F 75% 30.01 in 10.0 mi SSE 3.5 mph - N/A   Mostly Cloudy
6:36 PM 33.8 °F 29.6 °F 28.4 °F 81% 30.00 in 10.0 mi ESE 4.6 mph - 0.01 in   Mostly Cloudy
6:56 PM 33.8 °F 30.8 °F 28.4 °F 81% 30.00 in 1.0 mi South 3.5 mph - 0.02 in   Mostly Cloudy
7:16 PM 33.8 °F - 30.2 °F 87% 30.00 in 1.0 mi Calm Calm - 0.01 in   Mostly Cloudy
7:36 PM 33.8 °F 27.7 °F 30.2 °F 87% 30.00 in 3.0 mi ESE 6.9 mph - 0.01 in   Mostly Cloudy
7:56 PM 33.8 °F 28.6 °F 30.2 °F 87% 29.99 in 5.0 mi SE 5.8 mph - 0.01 in   Mostly Cloudy
8:16 PM 33.8 °F 30.8 °F 28.4 °F 81% 29.99 in 5.0 mi SSE 3.5 mph - N/A   Mostly Cloudy
8:36 PM 33.8 °F 30.8 °F 26.6 °F 75% 29.99 in 5.0 mi SW 3.5 mph - N/A   Mostly Cloudy
8:56 PM 33.8 °F 29.6 °F 28.4 °F 81% 29.99 in 3.0 mi ESE 4.6 mph - 0.01 in   Overcast
9:16 PM 33.8 °F 27.0 °F 28.4 °F 81% 29.98 in 3.0 mi East 8.1 mph - N/A   Overcast
9:36 PM 33.8 °F 30.8 °F 28.4 °F 81% 29.98 in 3.0 mi ESE 3.5 mph - N/A   Overcast
9:56 PM 33.8 °F 28.6 °F 28.4 °F 81% 29.97 in 7.0 mi ESE 5.8 mph - N/A   Overcast
10:16 PM 33.8 °F 27.0 °F 28.4 °F 81% 29.96 in 7.0 mi SE 8.1 mph - N/A   Overcast
10:36 PM 33.8 °F 29.6 °F 26.6 °F 75% 29.96 in 7.0 mi ESE 4.6 mph - N/A   Overcast
10:56 PM 33.8 °F 30.8 °F 26.6 °F 75% 29.95 in 7.0 mi SSE 3.5 mph - N/A   Overcast
11:16 PM 35.6 °F 31.7 °F 28.4 °F 75% 29.94 in 10.0 mi ESE 4.6 mph - N/A   Overcast
11:36 PM 33.8 °F - 26.6 °F 75% 29.94 in 9.0 mi Calm Calm - N/A   Overcast
11:56 PM 33.8 °F - 28.4 °F 81% 29.93 in 6.0 mi Calm Calm - N/A   Overcast